Regional Weather Roundup
Issued by NWS Charleston, WV

Home | Current Version | Previous Version | Text Only | Print | Product List | Glossary Off
Versions: 1 2 3 4 5 6 7 8 9 10 11 12 13 14 15 16 17 18 19 20 21 22 23 24 25 26 27 28 29 30 31 32 33 34 35 36 37 38 39 40 41 42 43 44 45 46 47 48 49 50

575
ASUS41 KRLX 281010
RWRRLX
West Virginia Regional Weather Roundup
National Weather Service Charleston WV
600 AM EDT WED JUN 28 2017

Note: "fair" indicates few or no clouds below 12,000 feet with no
significant weather and/or obstructions to visibility.

WVZ003-281100-
Northern Panhandle of West Virginia

CITY           SKY/WX    TMP DP  RH WIND       PRES   REMARKS
WHEELING       CLEAR     51  48  89 S5        30.16R
$$

WVZ009-281100-
Northwest West Virginia

CITY           SKY/WX    TMP DP  RH WIND       PRES   REMARKS
PARKERSBURG    CLEAR     50  47  89 CALM      30.20R
$$

WVZ006-281100-
Western West Virginia

CITY           SKY/WX    TMP DP  RH WIND       PRES   REMARKS
HUNTINGTON     CLEAR     51  49  92 E3        30.16S
$$

WVZ015-281100-
West Central West Virginia

CITY           SKY/WX    TMP DP  RH WIND       PRES   REMARKS
CHARLESTON     PTCLDY    50  48  93 CALM      30.18S
$$

WVZ022-031-281100-
North Central West Virginia

CITY           SKY/WX    TMP DP  RH WIND       PRES   REMARKS
CLARKSBURG     CLEAR     48  46  93 CALM      30.18R
MORGANTOWN     CLEAR     50  47  89 CALM      30.19R
$$

WVZ025-035-042-045-281100-
Southern West Virginia

CITY           SKY/WX    TMP DP  RH WIND       PRES   REMARKS
BECKLEY        CLEAR     47  44  90 CALM      30.23R
LOGAN            N/A     54  50  87 CALM      30.19R
BLUEFIELD      CLEAR     51  43  74 CALM      30.24R
LEWISBURG      FOG       43  42  97 NE5       30.23R VSB 1
$$

WVZ047-281100-
Northern Mountains of West Virginia

CITY           SKY/WX    TMP DP  RH WIND       PRES   REMARKS
ELKINS         PTCLDY    43  41  93 CALM      30.23R
$$

WVZ052-281100-
Eastern Panhandle of West Virginia

CITY           SKY/WX    TMP DP  RH WIND       PRES   REMARKS
MARTINSBURG    CLEAR     53  47  79 CALM      30.15R
PETERSBURG     CLEAR     47  46  96 CALM      30.20R
$$




USA.gov is the U.S. government's official web portal to all federal, state and local government web resources and services.